Location: Newark
(42.7133°N, 87.7910°W)
Time: 10:27:09
(UTC+00:00)

Tiros 1 - Pass Details

Date: 26 September 2019
Orbit: 630 x 664 km, 48.4° (Epoch: 15 October)

Event Time Altitude Azimuth Distance (km) Brightness Sun altitude
Rises 23:18:32 0° 288° (WNW) 2,946 12.0 3.4°
Reaches altitude 10° 23:21:21 10° 273° (W) 2,026 12.1 2.9°
Maximum altitude 23:24:48 21° 225° (SW) 1,437 9.8 2.3°
Drops below altitude 10° 23:28:13 10° 177° (S) 2,004 9.7 1.6°
Sets 23:30:59 0° 161° (SSE) 2,904 10.3 1.1°
